Thomasville, GA

9:51 PM EDT on July 25, 2017 (GMT -0400)
Thomasville Municipal

Weather History for KTVI - January, 2013

Change the Weather History Date:

Friday, January 25, 2013

  Actual Average (KMUL) Record (KMUL)
Temperature  
Mean Temperature 56 °F -  
Max Temperature 69 °F 61 °F 82 °F (1950)
Min Temperature 44 °F 41 °F 18 °F (1963)
Degree Days  
Heating Degree Days 8    
Growing Degree Days 6 (Base 50)    
Moisture  
Dew Point 46 °F    
Average Humidity 68    
Maximum Humidity 93    
Minimum Humidity 46    
Precipitation  
Precipitation 0.00 in - - ()
Sea Level Pressure  
Sea Level Pressure 30.27 in    
Wind  
Wind Speed 7 mph (SSE)    
Max Wind Speed 13 mph    
Max Gust Speed 18 mph    
Visibility 10 miles    
Events      
Averages and records for this station are not official NWS values.
T = Trace of Precipitation, MM = Missing Value Source: NWS Daily Summary

Daily Weather History Graph

Daily Weather History Graph

Search for Another Location

Airport or City:

Trip Planner

Search our weather history database for the weather conditions in past years. The results will help you decide how hot, cold, wet, or windy it might be!

Date:

Astronomy

Jan. 25, 2013 Rise Set
Actual Time 7:30 AM EST 6:05 PM EST
Civil Twilight 7:05 AM EST 6:30 PM EST
Nautical Twilight 6:36 AM EST 7:00 PM EST
Astronomical Twilight 6:07 AM EST 7:28 PM EST
Moon 5:01 PM EST (1/25) 6:09 AM EST (1/25)
Length of Visible Light 11h 25m
Length of Day
10h 34m
Waxing Gibbous, 98% of the Moon is Illuminated
Jan 25
Waxing Gibbous
Jan 26
Full
Feb 3
Last Quarter
Feb 10
New
Feb 17
First Quarter

Hourly Weather History & Observations

Time (EST) Temp. Windchill Dew Point Humidity Pressure Visibility Wind Dir Wind Speed Gust Speed Precip Events Conditions
12:15 AM 51.8 °F - 44.6 °F 76% 30.31 in 10.0 mi East 5.8 mph - N/A   Scattered Clouds
12:35 AM 51.8 °F - 42.8 °F 71% 30.31 in 10.0 mi ENE 5.8 mph - N/A   Clear
12:55 AM 51.8 °F - 41.0 °F 67% 30.31 in 10.0 mi East 4.6 mph - N/A   Scattered Clouds
1:15 AM 51.8 °F - 41.0 °F 67% 30.31 in 10.0 mi ENE 5.8 mph - N/A   Mostly Cloudy
1:35 AM 53.6 °F - 39.2 °F 58% 30.32 in 10.0 mi East 4.6 mph - N/A   Overcast
1:55 AM 53.6 °F - 37.4 °F 54% 30.31 in 10.0 mi East 4.6 mph - N/A   Overcast
2:15 AM 53.6 °F - 37.4 °F 54% 30.32 in 10.0 mi ENE 5.8 mph - N/A   Overcast
2:35 AM 51.8 °F - 37.4 °F 58% 30.32 in 10.0 mi ENE 6.9 mph - N/A   Overcast
2:55 AM 51.8 °F - 35.6 °F 54% 30.33 in 10.0 mi ENE 8.1 mph - N/A   Overcast
3:15 AM 51.8 °F - 37.4 °F 58% 30.33 in 10.0 mi East 6.9 mph - N/A   Overcast
3:35 AM 51.8 °F - 41.0 °F 67% 30.33 in 10.0 mi East 6.9 mph - N/A   Overcast
3:55 AM 51.8 °F - 42.8 °F 71% 30.33 in 10.0 mi ESE 5.8 mph - N/A   Overcast
4:15 AM 50.0 °F - 42.8 °F 76% 30.32 in 10.0 mi East 10.4 mph - N/A   Overcast
4:35 AM 50.0 °F - 44.6 °F 82% 30.32 in 10.0 mi East 8.1 mph - N/A   Overcast
4:55 AM 50.0 °F - 44.6 °F 82% 30.32 in 10.0 mi East 6.9 mph - N/A   Overcast
5:15 AM 50.0 °F - 44.6 °F 82% 30.32 in 10.0 mi ESE 6.9 mph - N/A   Overcast
5:35 AM 50.0 °F - 42.8 °F 76% 30.32 in 10.0 mi East 9.2 mph - N/A   Overcast
5:55 AM 48.2 °F - 42.8 °F 82% 30.32 in 10.0 mi East 8.1 mph - N/A   Overcast
6:15 AM 48.2 °F - 42.8 °F 82% 30.32 in 10.0 mi ESE 6.9 mph - N/A   Overcast
6:35 AM 46.4 °F 42.4 °F 42.8 °F 87% 30.31 in 10.0 mi SE 8.1 mph - N/A   Scattered Clouds
6:55 AM 46.4 °F 42.9 °F 42.8 °F 87% 30.31 in 10.0 mi SE 6.9 mph - N/A   Clear
7:15 AM 46.4 °F 42.4 °F 42.8 °F 87% 30.33 in 10.0 mi East 8.1 mph - N/A   Clear
7:35 AM 44.6 °F 41.4 °F 42.8 °F 93% 30.33 in 10.0 mi ENE 5.8 mph - N/A   Clear
7:55 AM 44.6 °F 41.4 °F 42.8 °F 93% 30.34 in 10.0 mi ENE 5.8 mph - N/A   Scattered Clouds
8:15 AM 44.6 °F 41.4 °F 42.8 °F 93% 30.35 in 10.0 mi ENE 5.8 mph - N/A   Clear
8:35 AM 46.4 °F 43.5 °F 42.8 °F 87% 30.35 in 10.0 mi ENE 5.8 mph - N/A   Clear
8:55 AM 46.4 °F 43.5 °F 42.8 °F 87% 30.35 in 10.0 mi East 5.8 mph - N/A   Mostly Cloudy
9:15 AM 46.4 °F 42.9 °F 41.0 °F 81% 30.36 in 10.0 mi ENE 6.9 mph - N/A   Overcast
9:35 AM 48.2 °F - 42.8 °F 82% 30.36 in 10.0 mi ENE 6.9 mph - N/A   Mostly Cloudy
9:55 AM 50.0 °F - 42.8 °F 76% 30.36 in 10.0 mi East 4.6 mph - N/A   Scattered Clouds
10:15 AM 51.8 °F - 42.8 °F 71% 30.36 in 10.0 mi East 6.9 mph - N/A   Clear
10:35 AM 53.6 °F - 42.8 °F 67% 30.35 in 10.0 mi SE 8.1 mph - N/A   Clear
10:55 AM 55.4 °F - 44.6 °F 67% 30.34 in 10.0 mi SE 9.2 mph - N/A   Clear
11:15 AM 55.4 °F - 44.6 °F 67% 30.33 in 10.0 mi SSE 3.5 mph - N/A   Clear
11:35 AM 59.0 °F - 46.4 °F 63% 30.31 in 10.0 mi South 9.2 mph - N/A   Clear
11:55 AM 60.8 °F - 46.4 °F 59% 30.30 in 10.0 mi South 8.1 mph - N/A   Clear
12:15 PM 62.6 °F - 46.4 °F 55% 30.29 in 10.0 mi SSW 8.1 mph - N/A   Clear
12:35 PM 62.6 °F - 48.2 °F 59% 30.26 in 10.0 mi SSW 11.5 mph - N/A   Clear
12:55 PM 66.2 °F - 48.2 °F 52% 30.24 in 10.0 mi SSW 10.4 mph - N/A   Clear
1:15 PM 66.2 °F - 50.0 °F 56% 30.24 in 10.0 mi SSW 9.2 mph 16.1 mph N/A   Clear
1:35 PM 66.2 °F - 50.0 °F 56% 30.23 in 10.0 mi SSW 8.1 mph - N/A   Clear
1:55 PM 68.0 °F - 50.0 °F 52% 30.23 in 7.0 mi SSW 10.4 mph - N/A   Clear
2:15 PM 68.0 °F - 50.0 °F 52% 30.23 in 7.0 mi WSW 12.7 mph - N/A   Clear
2:35 PM 69.8 °F - 50.0 °F 49% 30.22 in 10.0 mi SW 10.4 mph 16.1 mph N/A   Clear
2:55 PM 69.8 °F - 48.2 °F 46% 30.20 in 10.0 mi SW 10.4 mph - N/A   Clear
3:15 PM 69.8 °F - 48.2 °F 46% 30.20 in 10.0 mi WSW 5.8 mph 17.3 mph N/A   Scattered Clouds
3:35 PM 68.0 °F - 46.4 °F 46% 30.20 in 10.0 mi SW 12.7 mph 16.1 mph N/A   Scattered Clouds
3:55 PM 68.0 °F - 46.4 °F 46% 30.20 in 10.0 mi WSW 10.4 mph 18.4 mph N/A   Clear
4:15 PM 68.0 °F - 46.4 °F 46% 30.20 in 10.0 mi SW 12.7 mph - N/A   Clear
4:35 PM 68.0 °F - 46.4 °F 46% 30.19 in 10.0 mi SW 8.1 mph - N/A   Clear
4:55 PM 68.0 °F - 46.4 °F 46% 30.18 in 10.0 mi SW 9.2 mph 17.3 mph N/A   Clear
5:15 PM 68.0 °F - 48.2 °F 49% 30.19 in 10.0 mi SW 11.5 mph - N/A   Clear
5:35 PM 66.2 °F - 48.2 °F 52% 30.19 in 10.0 mi SW 9.2 mph - N/A   Clear
5:55 PM 64.4 °F - 48.2 °F 56% 30.19 in 10.0 mi SSW 8.1 mph - N/A   Clear
6:15 PM 64.4 °F - 48.2 °F 56% 30.19 in 7.0 mi SW 8.1 mph - N/A   Clear
6:35 PM 64.4 °F - 48.2 °F 56% 30.19 in 10.0 mi SSW 6.9 mph - N/A   Clear
6:55 PM 62.6 °F - 48.2 °F 59% 30.19 in 10.0 mi SSW 4.6 mph - N/A   Clear
7:15 PM 62.6 °F - 50.0 °F 63% 30.19 in 10.0 mi SSW 8.1 mph - N/A   Clear
7:35 PM 62.6 °F - 50.0 °F 63% 30.19 in 10.0 mi SSW 6.9 mph - N/A   Clear
7:55 PM 62.6 °F - 51.8 °F 68% 30.19 in 10.0 mi SSW 8.1 mph - N/A   Clear
8:15 PM 60.8 °F - 51.8 °F 72% 30.19 in 10.0 mi SSW 8.1 mph - N/A   Clear
8:35 PM 60.8 °F - 51.8 °F 72% 30.19 in 7.0 mi SW 6.9 mph - N/A   Clear
8:55 PM 60.8 °F - 51.8 °F 72% 30.20 in 10.0 mi SW 6.9 mph - N/A   Clear
9:15 PM 60.8 °F - 51.8 °F 72% 30.20 in 10.0 mi SW 6.9 mph - N/A   Clear
9:35 PM 60.8 °F - 51.8 °F 72% 30.20 in 10.0 mi SW 4.6 mph - N/A   Clear
9:55 PM 59.0 °F - 51.8 °F 77% 30.21 in 10.0 mi SW 5.8 mph - N/A   Clear
10:15 PM 57.2 °F - 51.8 °F 82% 30.21 in 10.0 mi SW 5.8 mph - N/A   Clear
10:35 PM 55.4 °F - 51.8 °F 88% 30.21 in 10.0 mi SW 4.6 mph - N/A   Clear
10:55 PM 57.2 °F - 51.8 °F 82% 30.21 in 10.0 mi SW 3.5 mph - N/A   Clear
11:15 PM 55.4 °F - 50.0 °F 82% 30.21 in 10.0 mi SW 3.5 mph - N/A   Clear
11:35 PM 55.4 °F - 51.8 °F 88% 30.22 in 10.0 mi SW 3.5 mph - N/A   Clear
11:55 PM 53.6 °F - 50.0 °F 88% 30.22 in 10.0 mi SW 3.5 mph - N/A   Clear